Time,TemperatureF,DewpointF,PressureIn,WindDirection,WindDirectionDegrees,WindSpeedMPH,WindSpeedGustMPH,Humidity,HourlyPrecipIn,Conditions,Clouds,dailyrainin,SoftwareType,DateUTC
2013-05-18 01:22:00,33.0,-99.9,-100.00,North,4,0.0,4.0,-999,-99.99,,,-99.99,,2013-05-18 09:22:00,
2013-05-18 01:33:00,33.0,-99.9,-100.00,North,4,0.0,4.0,-999,-99.99,,,-99.99,,2013-05-18 09:33:00,
2013-05-18 01:43:00,33.0,-99.9,-100.00,North,4,0.0,4.0,-999,-99.99,,,-99.99,,2013-05-18 09:43:00,
2013-05-18 01:53:00,33.0,-99.9,-100.00,North,4,0.0,4.0,-999,-99.99,,,-99.99,,2013-05-18 09:53:00,
2013-05-18 04:23:00,28.0,-99.9,-100.00,NNE,15,0.0,0.0,-999,-99.99,,,-99.99,,2013-05-18 12:23:00,
2013-05-18 04:33:00,28.0,-99.9,-100.00,NNE,15,0.0,0.0,-999,-99.99,,,-99.99,,2013-05-18 12:33:00,
2013-05-18 04:42:00,28.0,-99.9,-100.00,NNE,15,0.0,0.0,-999,-99.99,,,-99.99,,2013-05-18 12:42:00,
2013-05-18 04:52:00,28.0,-99.9,-100.00,NNE,15,0.0,0.0,-999,-99.99,,,-99.99,,2013-05-18 12:52:00,
2013-05-18 05:22:00,28.0,-99.9,-100.00,NNE,15,0.0,0.0,-999,-99.99,,,-99.99,,2013-05-18 13:22:00,
2013-05-18 05:33:00,28.0,-99.9,-100.00,NNE,15,0.0,0.0,-999,-99.99,,,-99.99,,2013-05-18 13:33:00,
2013-05-18 05:43:00,28.0,-99.9,-100.00,NNE,15,0.0,0.0,-999,-99.99,,,-99.99,,2013-05-18 13:43:00,
2013-05-18 05:53:00,28.0,-99.9,-100.00,NNE,15,0.0,0.0,-999,-99.99,,,-99.99,,2013-05-18 13:53:00,
2013-05-18 05:54:00,26.0,-99.9,-100.00,NNE,15,0.0,0.0,-999,-99.99,,,-99.99,,2013-05-18 13:54:00,
2013-05-18 06:22:00,26.0,-99.9,-100.00,NNE,15,0.0,0.0,-999,-99.99,,,-99.99,,2013-05-18 14:22:00,
2013-05-18 06:33:00,26.0,-99.9,-100.00,NNE,15,0.0,0.0,-999,-99.99,,,-99.99,,2013-05-18 14:33:00,
2013-05-18 06:43:00,26.0,-99.9,-100.00,NNE,15,0.0,0.0,-999,-99.99,,,-99.99,,2013-05-18 14:43:00,
2013-05-18 09:22:00,28.0,-99.9,-100.00,NNE,15,0.0,0.0,-999,-99.99,,,-99.99,,2013-05-18 17:22:00,
2013-05-18 09:33:00,28.0,-99.9,-100.00,NNE,15,0.0,0.0,-999,-99.99,,,-99.99,,2013-05-18 17:33:00,
2013-05-18 09:42:00,28.0,-99.9,-100.00,NNE,15,0.0,0.0,-999,-99.99,,,-99.99,,2013-05-18 17:42:00,
2013-05-18 09:52:00,28.0,-99.9,-100.00,NNE,15,0.0,0.0,-999,-99.99,,,-99.99,,2013-05-18 17:52:00,
2013-05-18 10:22:00,28.0,-99.9,-100.00,NNE,15,0.0,0.0,-999,-99.99,,,-99.99,,2013-05-18 18:22:00,
2013-05-18 10:32:00,28.0,-99.9,-100.00,NNE,15,0.0,0.0,-999,-99.99,,,-99.99,,2013-05-18 18:32:00,
2013-05-18 10:42:00,28.0,-99.9,-100.00,NNE,15,0.0,0.0,-999,-99.99,,,-99.99,,2013-05-18 18:42:00,
2013-05-18 10:52:00,28.0,-99.9,-100.00,NNE,15,0.0,0.0,-999,-99.99,,,-99.99,,2013-05-18 18:52:00,
2013-05-18 12:22:00,31.0,-99.9,-100.00,North,11,5.0,5.0,-999,-99.99,,,-99.99,,2013-05-18 20:22:00,
2013-05-18 12:32:00,31.0,-99.9,-100.00,North,11,5.0,5.0,-999,-99.99,,,-99.99,,2013-05-18 20:32:00,
2013-05-18 12:42:00,31.0,-99.9,-100.00,North,11,5.0,5.0,-999,-99.99,,,-99.99,,2013-05-18 20:42:00,
2013-05-18 12:52:00,31.0,-99.9,-100.00,North,11,5.0,5.0,-999,-99.99,,,-99.99,,2013-05-18 20:52:00,
2013-05-18 14:13:00,35.0,-99.9,-100.00,ESE,105,4.0,5.0,-999,-99.99,,,-99.99,,2013-05-18 22:13:00,
2013-05-18 14:23:00,35.0,-99.9,-100.00,ESE,105,4.0,5.0,-999,-99.99,,,-99.99,,2013-05-18 22:23:00,
2013-05-18 14:33:00,35.0,-99.9,-100.00,ESE,105,4.0,5.0,-999,-99.99,,,-99.99,,2013-05-18 22:33:00,
2013-05-18 14:42:00,35.0,-99.9,-100.00,ESE,105,4.0,5.0,-999,-99.99,,,-99.99,,2013-05-18 22:42:00,
2013-05-18 14:53:00,35.0,-99.9,-100.00,ESE,105,4.0,5.0,-999,-99.99,,,-99.99,,2013-05-18 22:53:00,
2013-05-18 15:22:00,35.0,-99.9,-100.00,East,84,9.0,9.0,-999,-99.99,,,-99.99,,2013-05-18 23:22:00,
2013-05-18 15:32:00,35.0,-99.9,-100.00,East,84,9.0,9.0,-999,-99.99,,,-99.99,,2013-05-18 23:32:00,
2013-05-18 15:42:00,35.0,-99.9,-100.00,East,84,9.0,9.0,-999,-99.99,,,-99.99,,2013-05-18 23:42:00,
2013-05-18 15:53:00,35.0,-99.9,-100.00,East,84,9.0,9.0,-999,-99.99,,,-99.99,,2013-05-18 23:53:00,
2013-05-18 16:22:00,37.0,-99.9,-100.00,North,5,0.0,3.0,-999,-99.99,,,-99.99,,2013-05-19 00:22:00,
2013-05-18 16:32:00,37.0,-99.9,-100.00,North,5,0.0,3.0,-999,-99.99,,,-99.99,,2013-05-19 00:32:00,
2013-05-18 16:42:00,37.0,-99.9,-100.00,North,5,0.0,3.0,-999,-99.99,,,-99.99,,2013-05-19 00:42:00,
2013-05-18 16:52:00,37.0,-99.9,-100.00,North,5,0.0,3.0,-999,-99.99,,,-99.99,,2013-05-19 00:52:00,
2013-05-18 17:22:00,37.0,-99.9,-100.00,NNE,18,0.0,4.0,-999,-99.99,,,-99.99,,2013-05-19 01:22:00,
2013-05-18 17:32:00,37.0,-99.9,-100.00,NNE,18,0.0,4.0,-999,-99.99,,,-99.99,,2013-05-19 01:32:00,
2013-05-18 17:42:00,37.0,-99.9,-100.00,NNE,18,0.0,4.0,-999,-99.99,,,-99.99,,2013-05-19 01:42:00,
2013-05-18 17:52:00,37.0,-99.9,-100.00,NNE,18,0.0,4.0,-999,-99.99,,,-99.99,,2013-05-19 01:52:00,
2013-05-18 18:22:00,37.0,-99.9,-100.00,East,88,0.0,0.0,-999,-99.99,,,-99.99,,2013-05-19 02:22:00,
2013-05-18 18:32:00,37.0,-99.9,-100.00,East,88,0.0,0.0,-999,-99.99,,,-99.99,,2013-05-19 02:32:00,
2013-05-18 18:42:00,37.0,-99.9,-100.00,East,88,0.0,0.0,-999,-99.99,,,-99.99,,2013-05-19 02:42:00,
2013-05-18 18:52:00,37.0,-99.9,-100.00,East,88,0.0,0.0,-999,-99.99,,,-99.99,,2013-05-19 02:52:00,
2013-05-18 19:22:00,38.0,-99.9,-100.00,NNW,347,0.0,0.0,-999,-99.99,,,-99.99,,2013-05-19 03:22:00,
2013-05-18 19:33:00,38.0,-99.9,-100.00,NNW,347,0.0,0.0,-999,-99.99,,,-99.99,,2013-05-19 03:33:00,
2013-05-18 19:43:00,38.0,-99.9,-100.00,NNW,347,0.0,0.0,-999,-99.99,,,-99.99,,2013-05-19 03:43:00,
2013-05-18 19:53:00,38.0,-99.9,-100.00,NNW,347,0.0,0.0,-999,-99.99,,,-99.99,,2013-05-19 03:53:00,
2013-05-18 20:23:00,38.0,-99.9,-100.00,North,2,0.0,0.0,-999,-99.99,,,-99.99,,2013-05-19 04:23:00,
2013-05-18 20:33:00,38.0,-99.9,-100.00,North,2,0.0,0.0,-999,-99.99,,,-99.99,,2013-05-19 04:33:00,
2013-05-18 20:42:00,38.0,-99.9,-100.00,North,2,0.0,0.0,-999,-99.99,,,-99.99,,2013-05-19 04:42:00,
2013-05-18 20:53:00,38.0,-99.9,-100.00,North,2,0.0,0.0,-999,-99.99,,,-99.99,,2013-05-19 04:53:00,
2013-05-18 21:22:00,35.0,-99.9,-100.00,North,2,0.0,0.0,-999,-99.99,,,-99.99,,2013-05-19 05:22:00,
2013-05-18 21:32:00,35.0,-99.9,-100.00,North,2,0.0,0.0,-999,-99.99,,,-99.99,,2013-05-19 05:32:00,
2013-05-18 21:42:00,35.0,-99.9,-100.00,North,2,0.0,0.0,-999,-99.99,,,-99.99,,2013-05-19 05:42:00,
2013-05-18 21:52:00,35.0,-99.9,-100.00,North,2,0.0,0.0,-999,-99.99,,,-99.99,,2013-05-19 05:52:00,
2013-05-18 22:22:00,32.0,-99.9,-100.00,North,2,0.0,0.0,-999,-99.99,,,-99.99,,2013-05-19 06:22:00,
2013-05-18 22:32:00,32.0,-99.9,-100.00,North,2,0.0,0.0,-999,-99.99,,,-99.99,,2013-05-19 06:32:00,
2013-05-18 22:42:00,32.0,-99.9,-100.00,North,2,0.0,0.0,-999,-99.99,,,-99.99,,2013-05-19 06:42:00,
2013-05-18 22:52:00,32.0,-99.9,-100.00,North,2,0.0,0.0,-999,-99.99,,,-99.99,,2013-05-19 06:52:00,
2013-05-18 23:22:00,31.0,-99.9,-100.00,North,2,0.0,0.0,-999,-99.99,,,-99.99,,2013-05-19 07:22:00,
2013-05-18 23:32:00,31.0,-99.9,-100.00,North,2,0.0,0.0,-999,-99.99,,,-99.99,,2013-05-19 07:32:00,
2013-05-18 23:42:00,31.0,-99.9,-100.00,North,2,0.0,0.0,-999,-99.99,,,-99.99,,2013-05-19 07:42:00,
2013-05-18 23:52:00,31.0,-99.9,-100.00,North,2,0.0,0.0,-999,-99.99,,,-99.99,,2013-05-19 07:52:00,